Regional Weather Roundup
Issued by NWS

Home | Current Version | Previous Version | Text Only | Print | Product List | Glossary On
Versions: 1 2 3 4 5 6 7 8 9 10 11 12 13 14 15 16 17 18 19 20 21 22 23 24 25 26 27 28 29 30 31 32 33 34 35 36 37 38 39 40 41 42 43 44 45 46 47 48 49 50
000
ASUS43 KDTX 091001
RWRMI
MICHIGAN HOURLY REGIONAL WEATHER ROUNDUP
NATIONAL WEATHER SERVICE DETROIT/PONTIAC MI
500 AM EST TUE FEB 09 2016

NOTE: "FAIR" INDICATES FEW OR NO CLOUDS BELOW 12,000 FEET WITH NO
SIGNIFICANT WEATHER AND/OR OBSTRUCTION TO VISIBILITY.

MIZ047>049-052>055-059>063-066>070-074>076-081>083-091100-
SOUTHEAST LOWER MICHIGAN

CITY           SKY/WX    TMP DP  RH WIND       PRES   REMARKS
ADRIAN         LGT SNOW  30  26  85 W10       29.56R FOG     WCI  21
ALMA           CLOUDY    29  27  92 NW14G21   29.56S WCI  19
ANN ARBOR      LGT SNOW  30  28  92 W9        29.52F FOG     WCI  22
BAD AXE        LGT SNOW  31  30  96 N13G24    29.47R WCI  21
CARO           CLOUDY    32  30  93 W13       29.49S VSB 1   WCI  22
DETROIT CITY   CLOUDY    34  29  82 W10       29.51S WCI  26
DETROIT        CLOUDY    32  28  85 SW10      29.53S WCI  24
FLINT          LGT SNOW  33  29  85 NW14      29.52R FOG     WCI  23
GROSSE ILE     CLOUDY    32  28  86 W7        29.52S WCI  26
HILLSDALE      CLOUDY    28  27  98 W12       29.54S WCI  18
HOWELL         SNOW      32  32  99 W9        29.51S VSB 1/2 WCI  24

CITY           SKY/WX    TMP DP  RH WIND       PRES   REMARKS
JACKSON        LGT SNOW  29  27  92 W8        29.54R FOG     WCI  21
LAMBERTVILLE   CLOUDY    30  27  86 W8        29.56S WCI  23
LANSING        LGT SNOW  30  27  88 NW13      29.55S FOG     WCI  20
LAPEER         LGT SNOW  32  32 100 NW7       29.48S WCI  25
MASON          LGT SNOW  31  29  95 NW8       29.54R WCI  23
MONROE         LGT SNOW  31  28  89 W10       29.54S WCI  22
PONTIAC        SNOW      31  30  96 W8        29.49S VSB 1/2 WCI  23
PORT HURON     LGT SNOW  32  32 100 W7        29.47S WCI  26
TRI CITIES     CLOUDY    31  26  82 NW16      29.54R WCI  20
MIDLAND        LGT SNOW  29  27  91 NW9       29.54S WCI  20
TROY           LGT SNOW  33  32  96 SW6       29.52S WCI  28
SAGINAW HB     LGT SNOW  32  30  93 NW16      29.52S WCI  21
$$
MIZ043>046-050>051-056>058-064>065-071>073-077>080-091100-
SOUTHWEST LOWER MICHIGAN

CITY           SKY/WX    TMP DP  RH WIND       PRES   REMARKS
BATTLE CREEK   CLOUDY    31  28  89 NW9       29.56S WCI  23
BENTON HARBOR  LGT SNOW  30  27  88 NW9G20    29.63S VSB 3/4 WCI  22
BIG RAPIDS     CLOUDY    25  23  90 NW10      29.59R WCI  15
COLDWATER      CLOUDY    28  28  96 W6        29.56S WCI  22
FREMONT        CLOUDY    25  22  88 N15       29.62R WCI  13
HOLLAND        CLOUDY    28  24  85 NW7       29.63R WCI  21
GRAND RAPIDS   CLOUDY    29  25  85 NW14      29.60R WCI  18
IONIA          CLOUDY    30  26  85 NW13      29.57R WCI  20
KALAMAZOO      CLOUDY    32  28  85 NW10      29.57S WCI  24
LUDINGTON      LGT SNOW  24  21  87 NW12G20   29.67R WCI  13
MARSHALL       LGT SNOW  30  28  93 SW6       29.55S WCI  24
MOUNT PLEASANT CLOUDY    28  23  81 NW9G18    29.56S WCI  19
MUSKEGON       CLOUDY    27  20  75 N12       29.66R WCI  17
SOUTH HAVEN    FLURRIES  29  26  87 N12G20    29.63R WCI  20
$$
MIZ016>042-091100-
NORTHERN LOWER MICHIGAN

CITY           SKY/WX    TMP DP  RH WIND       PRES   REMARKS
ALPENA         LGT SNOW  28  25  88 NW12      29.53F FOG     WCI  18
BEAVER ISLAND  CLOUDY    23  19  83 NW13G20   29.63S WCI  11
BELLAIRE       CLOUDY    26  21  83 N5        29.63R WCI  20
CADILLAC       CLOUDY    24  21  89 NW8G17    29.57S WCI  14
CHARLEVOIX     CLOUDY    26  22  85 N13G20    29.65S WCI  15
FRANKFORT      CLOUDY    24  20  83 N9        29.66S WCI  14
GAYLORD        CLOUDY    23  20  88 VRB7      29.55S WCI  15
GRAYLING       CLOUDY    24  21  91 NW9G17    29.57R WCI  14
HARBOR SPRINGS CLOUDY    25  20  83 W8        29.61R WCI  16
HOUGHTON LAKE  CLOUDY    24  21  88 NW12      29.55S WCI  13
MANISTEE       CLOUDY    25  18  74 N13       29.66S WCI  13
OSCODA         LGT SNOW  28  27  93 NW14G23   29.49F WCI  17
PELLSTON       CLOUDY    24  19  81 NW13      29.61R WCI  12
ROGERS CITY    LGT SNOW  28  25  90 NW13      29.56S WCI  17
TRAVERSE CITY  CLOUDY    27  21  78 NW12      29.63R WCI  17
$$
MIZ007>008-015-091100-
EASTERN UPPER MICHIGAN

CITY           SKY/WX    TMP DP  RH WIND       PRES   REMARKS
KINROSS        CLOUDY    27  27 100 NW12      29.57S WCI  16
MACKINAC ISLAN CLOUDY    24  21  89 NW10      29.58S WCI  14
NEWBERRY       CLOUDY    21  19  91 NW10G21   29.61S WCI  10
S. S. MARIE    LGT SNOW  29  25  85 NW12      29.56F FOG     WCI  19
$$
MIZ004>006-011>014-085-091100-
CENTRAL UPPER MICHIGAN

CITY           SKY/WX    TMP DP  RH WIND       PRES   REMARKS
MANISTIQUE     CLOUDY    21  15  77 N17       29.64S WCI   7
ESCANABA       CLOUDY    16   9  73 NW13      29.71S WCI   2
MENOMINEE      CLOUDY    16   7  67 N8        29.74F WCI   5
SAWYER-GWINN   LGT SNOW  12   8  84 N15G23    29.69R WCI  -4
$$
MIZ001>003-009>011-084-091100-
WESTERN UPPER MICHIGAN

CITY           SKY/WX    TMP DP  RH WIND       PRES   REMARKS
IRON MOUNTAIN  CLOUDY    12   4  70 NW13      29.71S WCI  -3
HOUGHTON       SNOW      11   5  77 N14G23    29.78R VSB 1/2 WCI  -5
COPPER HARBOR    N/A     16  13  88 NE22G36   29.78R WCI  -2
IRONWOOD       CLOUDY    12  10  92 N16G23    29.80S WCI  -4
$$

ABBREVIATIONS USED IN REMARKS
   TC - TEMPERATURE IN CELSIUS
  WCI - WIND CHILL INDEX
   HX - HEAT INDEX
  VSB - VISIBILITY




USA.gov is the U.S. government's official web portal to all federal, state and local government web resources and services.